This demonstration page uses our WeatherBlox Daily Observations layout. Learn more.

Left ArrowRight Arrow

Hourly Observations for July 4, 2022

Temp ( °F °C ) Dew Point ( °F °C ) Humidity (%) Winds ( mph kmh ) Pressure ( in mb ) Visibility ( mi km ) Precip ( " mm )
12:04 am 00:04 Mostly Cloudy 61 16.1 59 15 93 93 NNE 5 7 29.84 1010 10 16 0.00 0.00
12:53 am 00:53 Cloudy 61 16.1 59 15 93 93 Calm 29.89 1012 10 16 0.00 0.00
1:00 am 01:00 Cloudy 61 16.1 59 15 93 93 NE 3 6 29.86 1011 10 16 0.00 0.00
1:53 am 01:53 Clear 59 15 58 14.4 96 96 Calm 29.88 1012 10 16 0.00 0.00
2:02 am 02:02 Partly Cloudy 58 14.4 58 14.4 100 100 W 3 6 29.86 1011 10 16 0.00 0.00
2:14 am 02:14 Mostly Cloudy 59 15 58 14.4 96 96 WSW 3 6 29.85 1011 10 16 0.00 0.00
2:53 am 02:53 Cloudy 59 15 59 15 100 100 W 6 9 29.87 1012 10 16 0.00 0.00
3:53 am 03:53 Cloudy 60 15.6 59 15 96 96 Calm 29.88 1012 10 16 0.00 0.00
4:30 am 04:30 Cloudy 61 16 59 15 94 94 WSW 5 7 29.85 1011 10 16 0.00 0.00
4:53 am 04:53 Cloudy 60 15.6 60 15.6 100 100 WSW 3 6 29.88 1012 10 16 0.00 0.00
5:00 am 05:00 Cloudy 61 16.1 60 15.6 97 97 WSW 5 7 29.85 1011 10 16 0.00 0.00
5:43 am 05:43 Cloudy 61 16.1 59 15 93 93 SW 7 11 29.86 1011 10 16 0.00 0.00
5:53 am 05:53 Cloudy 61 16.1 59 15 93 93 SW 7 11 29.89 1012 10 16 0.00 0.00
6:29 am 06:29 Cloudy 61 16.1 60 15.6 97 97 SW 6 9 29.87 1011 10 16 0.00 0.00
6:53 am 06:53 Cloudy 61 16.1 60 15.6 97 97 SW 7 11 29.90 1012 10 16 0.00 0.00
7:01 am 07:01 Cloudy 61 16.1 60 15.6 97 97 SW 9 15 29.86 1011 10 16 0.00 0.00
7:25 am 07:25 Cloudy 62 16.7 60 15.6 93 93 SW 8 13 29.85 1011 10 16 0.00 0.00
7:33 am 07:33 Cloudy 62 16.7 60 15.6 93 93 SW 8 13 29.85 1011 10 16 0.00 0.00
7:53 am 07:53 Cloudy 61 16.1 59 15 93 93 WSW 9 15 29.89 1012 10 16 0.00 0.00
8:08 am 08:08 Cloudy 62 16.7 60 15.6 93 93 WSW 9 15 29.84 1011 10 16 0.00 0.00
8:53 am 08:53 Mostly Cloudy 63 17.2 59 15 87 87 WSW 13 20 29.89 1012 10 16 0.00 0.00
9:06 am 09:06 Cloudy 63 17.2 59 15 87 87 WSW 12 19 29.84 1010 10 16 0.00 0.00
9:40 am 09:40 Cloudy 64 17.8 59 15 84 84 W 8 13 29.83 1010 10 16 0.00 0.00
9:53 am 09:53 Cloudy 64 17.8 59 15 84 84 W 8 13 29.89 1012 10 16 0.00 0.00
10:05 am 10:05 Cloudy 65 18.3 59 15 81 81 W 8 13 29.84 1010 10 16 0.00 0.00
10:53 am 10:53 Cloudy 68 20 59 15 73 73 W 10 17 29.89 1012 10 16 0.00 0.00
11:27 am 11:27 Cloudy 68 20 58 14.4 70 70 W 10 17 29.82 1010 10 16 0.00 0.00
11:53 am 11:53 Mostly Cloudy 71 21.7 58 14.4 63 63 W 9 15 29.88 1012 10 16 0.00 0.00
12:53 pm 12:53 Mostly Cloudy 71 21.7 56 13.3 59 59 VRB 5 7 29.88 1012 10 16 0.00 0.00
1:53 pm 13:53 Partly Cloudy 75 23.9 55 12.8 50 50 VRB 5 7 29.87 1011 10 16 0.00 0.00
2:53 pm 14:53 Mostly Cloudy 74 23.3 55 12.8 52 52 VRB 3 6 29.87 1011 10 16 0.00 0.00
3:53 pm 15:53 Mostly Cloudy 76 24.4 56 13.3 50 50 SSW 5 7 29.86 1011 10 16 0.00 0.00
4:53 pm 16:53 Mostly Cloudy 77 25 55 12.8 47 47 ESE 6 9 29.85 1011 10 16 0.00 0.00
5:53 pm 17:53 Partly Cloudy 75 23.9 55 12.8 50 50 Calm 29.85 1011 10 16 0.00 0.00
6:53 pm 18:53 Sunny 75 23.9 55 12.8 50 50 Calm 29.86 1011 10 16 0.00 0.00
7:53 pm 19:53 Mostly Sunny 72 22.2 59 15 64 64 W 3 6 29.87 1012 10 16 0.00 0.00
8:53 pm 20:53 Cloudy with Light Rain 69 20.6 61 16.1 76 76 NE 14 22 29.89 1012 10 16 0.00 0.00
9:53 pm 21:53 Mostly Cloudy with Nearby Thunderstorms 65 18.3 61 16.1 87 87 ENE 8 13 29.93 1014 10 16 0.00 0.00
10:39 pm 22:39 Cloudy with Thunderstorms 63 17.2 61 16.1 93 93 VRB 7 11 29.90 1012 7 11 0.05 1.27
10:47 pm 22:47 Cloudy with Thunderstorms 63 17 61 16 94 94 ESE 7 11 29.90 1013 9 14 0.05 1.27
10:53 pm 22:53 Cloudy with Nearby Thunderstorms 63 17.2 61 16.1 93 93 ENE 10 17 29.93 1014 10 16 0.05 1.27
11:06 pm 23:06 Mostly Cloudy 63 17 61 16 94 94 ENE 10 17 29.90 1013 8 13 0.00 0.00
11:15 pm 23:15 Partly Cloudy 62 16.7 60 15.6 93 93 ENE 9 15 29.91 1013 10 16 0.00 0.00
11:53 pm 23:53 Clear 61 16.1 60 15.6 97 97 ENE 12 19 29.93 1014 10 16 0.00 0.00

Powered by AerisWeather